Regional Weather Roundup
Issued by NWS

Home | Current Version | Previous Version | Graphics & Text | Print | Product List | Glossary On
Versions: 1 2 3 4 5 6 7 8 9 10 11 12 13 14 15 16 17 18 19 20 21 22 23 24 25 26 27 28 29 30 31 32 33 34 35 36 37 38 39 40 41 42 43 44 45 46 47 48 49 50
945
ASUS43 KMKX 201900
RWRWI

WISCONSIN REGIONAL WEATHER ROUNDUP
NATIONAL WEATHER SERVICE MILWAUKEE/SULLIVAN WI
100 PM CST TUE FEB 20 2018

NOTE: "FAIR" INDICATES FEW OR NO CLOUDS BELOW 12,000 FEET WITH NO
SIGNIFICANT WEATHER AND/OR OBSTRUCTIONS TO VISIBILITY.

WIZ001-002-006>008-014>016-023>028-202000-
NORTHWEST WISCONSIN

CITY           SKY/WX    TMP DP  RH WIND       PRES   REMARKS
SUPERIOR ARPT  FLURRIES  13   8  79 W7        29.94S WCI   3
ASHLAND        CLOUDY    21  18  88 N6        29.87R FOG     WCI  13
HAYWARD        CLOUDY    23  18  81 VRB5      29.85R WCI  17
SIREN          FLURRIES  16  12  85 W9        29.93R WCI   4
CUMBERLAND     CLOUDY    21  18  86 W9        29.87R WCI  11
RICE LAKE      CLOUDY    23  20  88 W9        29.89S WCI  13
CHETEK         CLOUDY    23  20  88 W6        29.87S WCI  15
LADYSMITH      CLOUDY    25  22  88 W8        29.85S WCI  16
EAU CLAIRE     CLOUDY    23  20  88 W10       29.89R WCI  12
MENOMONIE      CLOUDY    24  20  83 W13       29.90S WCI  13
NEW RICHMOND   CLOUDY    19  15  84 NW10      29.92R WCI   8
OSCEOLA        CLOUDY    18  14  83 W8        29.97S WCI   8
$$

WIZ003>005-009-010-017-018-202000-
NORTH CENTRAL WISCONSIN

CITY           SKY/WX    TMP DP  RH WIND       PRES   REMARKS
MANITOWISH WTR CLOUDY    23  23 100 SW5       29.77R WCI  17
ARBOR VITAE    CLOUDY    26  24  93 W3        29.77R FOG
WOODRUFF       CLOUDY    26  24  93 W3        29.77R FOG
RHINELANDER    CLOUDY    28  27  96 W13       29.77S WCI  17
EAGLE RIVER    CLOUDY    26  26  99 W9        29.75R FOG     WCI  17
LAND O LAKES   CLOUDY    27  26  96 W5        29.77R WCI  21
PHILLIPS       CLOUDY    23  23 100 SW6       29.79S WCI  16
TOMAHAWK       CLOUDY    28  26  94 W7        29.79R WCI  21
MEDFORD        CLOUDY    25  23  93 W8        29.81R WCI  16
MERRILL        CLOUDY    29  28  95 W9        29.82R WCI  21
$$

WIZ029-030-035-036-043>047-202000-
CENTRAL WISCONSIN

CITY           SKY/WX    TMP DP  RH WIND       PRES   REMARKS
WAUSAU         CLOUDY    30  28  92 W16       29.80R WCI  19
MOSINEE        CLOUDY    30  30 100 W10       29.82R WCI  21
MARSHFIELD     CLOUDY    28  26  92 W12       29.81S WCI  18
STEVENS POINT  CLOUDY    31  31 100 W9        29.82S WCI  23
WAUPACA        CLOUDY    36  34  92 SW6       29.84R WCI  31
WAUTOMA        LGT RAIN  33  31  92 W9        29.83S WCI  25
WISC RAPIDS    CLOUDY    32  28  85 W9G20     29.85S WCI  24
CAMP DOUGLAS   FRZ DRZL  32  32 100 NW8       29.84R WCI  25
$$

WIZ011>013-019>022-031-037>040-048>050-202000-
NORTHEAST WISCONSIN

CITY           SKY/WX    TMP DP  RH WIND       PRES   REMARKS
ANTIGO         CLOUDY    31  31 100 W12       29.78R FOG     WCI  21
SHAWANO        CLOUDY    34  32  93 CALM      29.80F FOG
OCONTO         CLOUDY    32  32  99 CALM      29.79F
STURGEON BAY   CLOUDY    33  32  96 W6        29.80S WCI  28
GREEN BAY      CLOUDY    35  32  88 SW9       29.81F WCI  28
MANITOWOC      LGT RAIN  40  39  97 W5        29.83R
APPLETON       CLOUDY    34  34 100 W10       29.78F WCI  26
CLINTONVILLE   CLOUDY    33  32  96 SW3       29.80F
OSHKOSH        LGT RAIN  36  34  92 VRB7      29.84R WCI  30
$$

WIZ032>034-041-042-053>061-202000-
SOUTHWEST WISCONSIN

CITY           SKY/WX    TMP DP  RH WIND       PRES   REMARKS
LA CROSSE      CLOUDY    29  24  82 W14       29.90S WCI  18
SPARTA         CLOUDY    28  27  95 W7        29.89S WCI  21
VIROQUA        CLOUDY    28  28 100 NW7       29.86S WCI  21
BOSCOBEL       CLOUDY    34  29  82 W10       29.91R WCI  26
PRAIRIE DU CHI CLOUDY    30  29  96 W14       29.93R WCI  20
PLATTEVILLE    CLOUDY    33  33 100 W17       29.89R WCI  22
$$

WIZ056-057-062-063-064-067-068-202000-
SOUTH CENTRAL WISCONSIN

CITY           SKY/WX    TMP DP  RH WIND       PRES   REMARKS
REEDSBURG      LGT RAIN  34  34 100 W10G20    29.84F WCI  26
BARABOO/DELLS  RAIN      34  33  97 W13       29.83F WCI  25
LONE ROCK      CLOUDY    36  34  92 W12       29.86S WCI  28
MINERAL POINT  CLOUDY    34  34 100 W13       29.86R WCI  25
MADISON        LGT RAIN  37  36  96 CALM      29.86R FOG
MIDDLETON      CLOUDY    37  37 100 W8        29.86R WCI  31
WATERTOWN      RAIN      39  39 100 SW5       29.85R
MONROE         LGT RAIN  34  34 100 W16       29.86R WCI  23
JANESVILLE     LGT RAIN  41  41 100 SW7       29.85R
$$

WIZ051-052-058>065-066-070>072-202000-
SOUTHEAST WISCONSIN

CITY           SKY/WX    TMP DP  RH WIND       PRES   REMARKS
MILWAUKEE      TSTM      51  49  92 W8        29.83R FOG
WAUKESHA       RAIN      45  45 100 SW5       29.83S
MILWAUKEE/TIMM RAIN      46  43  87 S3        29.82F
RACINE         TSTM      51  50  96 NW9       29.85R FOG
BURLINGTON     RAIN      49  48  96 SW13      29.84R
KENOSHA        TSTM      53  50  89 NW15G23   29.82R FOG
FOND DU LAC    LGT RAIN  37  34  89 SW7       29.84R WCI  32
SHEBOYGAN      LGT RAIN  40  40 100 W5        29.80S FOG
WEST BEND      RAIN      45  45 100 W5        29.82R
JUNEAU         RAIN      37  36  98 SW5       29.85R WCI  33
$$

LSZ147-162-202000-
LAKE SUPERIOR

STATION/POSITION TIME  TEMP    WIND        PRES    WAVE
                       AIR SEA DIR/SP/G            HT/PER
                 (UTC) (F)     (DEG/KT/KT) (MB)    (FT/S)
DEVILS ISLAND    1800   18      30/ 11/ 13 1012.1F
SAXON HARBOR     1840   23      20/  9/ 10 1010.2R
$$

LMZ867-665-643>646-202000-
LAKE MICHIGAN

STATION/POSITION TIME  TEMP    WIND        PRES    WAVE
                       AIR SEA DIR/SP/G            HT/PER
                 (UTC) (F)     (DEG/KT/KT) (MB)    (FT/S)
NORTHPORT PIER   1840   31                 1008.8F
KEWAUNEE LAKESHO 1830   38     230/  5/  6 1008.7R
SHEBOYGAN LAKESH 1800   40     220/  9/ 11 1010.1R
PORT WASHINGTON  1840   40     110/  1/  3 1010.8R
MILWAUKEE LAKESH 1830   47     270/  8/  9   N/A
KENOSHA   LAKESH 1800   43     170/  7/  8 1009.5
$$

TC  - TEMPERATURE IN CELSIUS
VSB - VISIBILITY IN STATUTE MILES
WCI - WIND CHILL INDEX
HX  - HEAT INDEX





USA.gov is the U.S. government's official web portal to all federal, state and local government web resources and services.